Location: Reutlingen
(48.4911°N, 9.2587°E)
Time: 18:39:15
(UTC+01:00)

ISS - Pass Details

Date: 12 January 2018
Orbit: 402 x 407 km, 51.6° (Epoch: 17 January)

Event Time Altitude Azimuth Distance (km) Brightness Sun altitude
Exits shadow 06:24:08 47° 250° (WSW) 548 -3.6 -17.2°
Maximum altitude 06:24:41 55° 209° (SSW) 492 -3.6 -17.1°
Drops below altitude 10° 06:27:55 10° 130° (SE) 1,463 0.0 -16.6°
Sets 06:30:00 0° 126° (SE) 2,321 1.3 -16.2°
